Flag for Taiwan

Past Weather in Taipei, Taiwan — Yesterday and Last 2 Weeks

Now
81 °F

Passing clouds.


Feels Like: 85 °F
Forecast: 82 / 76 °F
Wind: 7 mph from East

Location: Sungshan / Taipei
Current Time: Sep 24, 2020 at 12:56:36 am
Latest Report: Sep 24, 2020 at 12:00 am
Visibility: N/A
Pressure29.86 "Hg
Humidity: 74%
Dew Point: 72 °F
Location of TaipeiLocation

Past Weather in Taipei — Graph

°F

Taipei Temperature Yesterday

Maximum temperature yesterday: 91 °F (at 12:00 pm)
Minimum temperature yesterday: 75 °F (at 3:00 am)
Average temperature yesterday: 84 °F

High & Low Weather Summary for the Past Weeks

 TemperatureHumidityPressure
High99 °F (Sep 17, 4:00 pm)100% (Sep 9, 7:00 pm)29.92 "Hg (Sep 9, 7:00 pm)
Low73 °F (Sep 22, 6:00 am)50% (Sep 9, 12:30 pm)29.68 "Hg (Sep 10, 2:30 pm)
Average85 °F76%29.83 "Hg
* Reported Sep 8 11:00 pm — Sep 23 11:30 pm, Taipei. Weather by CustomWeather, © 2020

Note: Actual official high and low records may vary slightly from our data, if they occured in-between our weather recording intervals... More about our weather records

Taipei Weather History for the Previous 24 Hours

Scroll right to see more
 ConditionsComfort  
Time TempWeatherWind HumidityBarometerVisibility
11:30 pm
Wed, Sep 23
81 °FPassing clouds.7 mph74%29.86 "HgN/A
11:00 pm81 °FPassing clouds.8 mph74%29.86 "HgN/A
10:30 pm81 °FPassing clouds.8 mph74%29.86 "HgN/A
10:00 pm81 °FPassing clouds.10 mph74%29.86 "HgN/A
9:30 pm81 °FPassing clouds.12 mph74%29.86 "HgN/A
9:00 pm81 °FPassing clouds.12 mph74%29.86 "HgN/A
8:30 pm81 °FPassing clouds.12 mph74%29.86 "HgN/A
8:00 pm81 °FPassing clouds.14 mph74%29.86 "HgN/A
7:30 pm81 °FPassing clouds.13 mph74%29.86 "HgN/A
7:00 pm81 °FPassing clouds.13 mph74%29.83 "HgN/A
6:30 pm81 °FPassing clouds.12 mph74%29.83 "HgN/A
6:00 pm81 °FPassing clouds.16 mph74%29.83 "HgN/A
5:30 pm82 °FPartly sunny.16 mph70%29.83 "HgN/A
5:00 pm84 °FPartly sunny.16 mph66%29.80 "HgN/A
4:30 pm86 °FPartly sunny.14 mph62%29.80 "HgN/A
4:00 pm86 °FPartly sunny.17 mph62%29.80 "HgN/A
3:30 pm88 °FPartly sunny.16 mph59%29.80 "HgN/A
3:00 pm90 °FScattered clouds.15 mph55%29.80 "HgN/A
2:30 pm91 °FScattered clouds.15 mph52%29.80 "HgN/A
2:00 pm91 °FScattered clouds.16 mph52%29.80 "HgN/A
1:30 pm90 °FScattered clouds.13 mph52%29.80 "HgN/A
1:00 pm91 °FScattered clouds.15 mph52%29.83 "HgN/A
12:30 pm91 °FScattered clouds.16 mph52%29.83 "HgN/A
12:00 pm91 °FPassing clouds.14 mph52%29.83 "HgN/A
11:30 am90 °FPassing clouds.14 mph55%29.86 "HgN/A
11:00 am90 °FPassing clouds.17 mph55%29.86 "HgN/A
10:30 am90 °FPassing clouds.15 mph52%29.86 "HgN/A
10:00 am90 °FPassing clouds.13 mph55%29.86 "HgN/A
9:30 am88 °FPassing clouds.15 mph59%29.86 "HgN/A
9:00 am86 °FPassing clouds.13 mph62%29.86 "HgN/A
8:30 am86 °FPassing clouds.15 mph62%29.86 "HgN/A
8:00 am84 °FPassing clouds.9 mph66%29.86 "HgN/A
7:00 am81 °FPassing clouds.7 mph74%29.86 "HgN/A
6:30 am79 °FPassing clouds.7 mph79%29.86 "HgN/A
6:00 am77 °FPassing clouds.5 mph79%29.86 "HgN/A
5:00 am75 °FPassing clouds.7 mph78%29.83 "HgN/A
4:00 am77 °FPassing clouds.6 mph74%29.83 "HgN/A
3:00 am75 °FPassing clouds.7 mph78%29.83 "HgN/A
2:00 am77 °FPassing clouds.7 mph74%29.83 "HgN/A
1:00 am79 °FPassing clouds.7 mph70%29.86 "HgN/A
12:00 am79 °FPassing clouds.6 mph70%29.86 "HgN/A
Weather by CustomWeather, © 2020

See weather overview